Content
SEND FEEDBACK

Daily
Averages
Monthly
Summary
United States of America

ASHEVILLE, NORTH CAROLINA


Home > North America > United States > North Carolina
Elevation: 2240 feet     Latitude: 35 36N     Longitude: 082 32W

WEATHER
 
SELECT A DAY
Number of Records: 226,157;   Date Range: 1/1/95 - 8/17/14
 
SHARE

PRINT THIS DATA

[ ← Previous Day ]
WEATHER ALMANAC - FEBRUARY 14, 2013
[ Next Day → ]
[ °C ]   °F
Weather ElementAverageHighLow
Temperature39.5 °F53.1 °F (2:54 pm)30.2 °F (7:39 am)
Dewpoint26.8 °F28.9 °F (12:54 am)24.8 °F (7:39 am)
Humidity63 %82 % (6:54 am)34 % (4:54 pm)
Barometer29.98 in30.05 in (10:54 pm)29.90 in (12:35 am)
Wind Speed5.5 mph13.8 mph (3:54 am)
Wind Gust25.3 mph (3:54 am)
Weather ElementAverage
Visibility10 mi
Wind DirectionSW (225.8 °)

Weather ElementTotal
Precipitation---
Heating Degree Days23.4 (Base 65)
Averaged from 26 records on February 14, 2013
WEATHER CONDITIONS BREAKOUT
WIND DIRECTION BREAKOUT
WEATHER BY HOUR - FEBRUARY 14, 2013
[ °C ]   °F
Local TimeTemperatureDewpointHumidityBarometerVisibilityWind DirectionWind SpeedGust SpeedPrecipitationEventsConditions
12:35 AM35.6 °F28.4 °F75 %29.90 in10.0 miNorth (360°)12.7 mph19.6 mphScattered Clouds
12:54 AM35.1 °F28.9 °F78 %29.91 in10.0 miNorth (350°)10.4 mph18.4 mphClear
1:54 AM35.1 °F28.9 °F78 %29.91 in10.0 miNorth (350°)9.2 mph19.6 mphClear
2:54 AM34.0 °F27.0 °F75 %29.92 in10.0 miNorth (350°)11.5 mph16.1 mphPartly Cloudy
3:54 AM34.0 °F27.0 °F75 %29.91 in10.0 miNorth (350°)13.8 mph25.3 mphClear
4:54 AM33.1 °F27.0 °F78 %29.94 in10.0 miNorth (350°)13.8 mph20.7 mphClear
5:54 AM32.0 °F26.1 °F79 %29.96 in10.0 miNNW (330°)6.9 mphMostly Cloudy
6:54 AM30.9 °F26.1 °F82 %29.99 in10.0 miNNW (330°)5.8 mphOvercast
7:39 AM30.2 °F24.8 °F80 %29.99 in10.0 miNNW (340°)5.8 mphScattered Clouds
7:54 AM32.0 °F25.0 °F75 %30.02 in10.0 miNorth (360°)5.8 mphClear
8:54 AM35.1 °F26.1 °F70 %30.04 in10.0 miNNW (340°)6.9 mphClear
9:54 AM37.0 °F26.1 °F65 %30.04 in10.0 miNorth (360°)4.6 mphClear
10:54 AM42.1 °F28.0 °F58 %30.02 in10.0 miNNW (330°)8.1 mphClear
11:54 AM45.0 °F28.0 °F52 %30.02 in10.0 miNorth (360°)3.5 mphClear
12:54 PM46.0 °F28.0 °F50 %30.00 in10.0 miCalmClear
1:54 PM48.0 °F27.0 °F44 %29.95 in10.0 miCalmClear
2:54 PM53.1 °F28.9 °F40 %29.96 in10.0 miCalmClear
3:54 PM51.1 °F25.0 °F36 %29.95 in10.0 miCalmClear
4:54 PM53.1 °F25.0 °F34 %29.96 in10.0 miVariable3.5 mphClear
5:54 PM48.9 °F26.1 °F41 %29.97 in10.0 miNNW (330°)11.5 mphClear
6:54 PM46.0 °F25.0 °F44 %29.99 in10.0 miNorth (350°)3.5 mphClear
7:54 PM42.1 °F26.1 °F53 %30.01 in10.0 miNNW (330°)6.9 mphClear
8:54 PM41.0 °F26.1 °F55 %30.01 in10.0 miCalmClear
9:54 PM39.0 °F26.1 °F60 %30.04 in10.0 miCalmClear
10:54 PM34.0 °F28.0 °F79 %30.05 in10.0 miCalmClear
11:54 PM33.1 °F28.0 °F82 %30.05 in10.0 miCalmClear
Hourly data recorded from KAVL, located miles away from Asheville, North Carolina







STORIES FROM OUR PARTNERS